This is the latest recevied weather packets stored in our database for station/object ALANSN-2. If no packets are shown the sender has not sent any weather packets the latest 10 day(s).
| Time | Temp. | Humidity | Pressure | Rain* | Wind** | Luminosity | Snow |
|---|---|---|---|---|---|---|---|
| 1787778720 | 22.22° C | 84% | 1019.2 hPa | 0 mm | - | 416 W/m² | - |
| 1787778418 | 22.22° C | 84% | 1019.2 hPa | 0 mm | - | 416 W/m² | - |
| 1787778119 | 22.22° C | 84% | 1019.4 hPa | 0 mm | - | 406 W/m² | - |
| 1787777822 | 22.22° C | 83% | 1019.4 hPa | 0 mm | - | 429 W/m² | - |
| 1787777520 | 22.22° C | 83% | 1019.4 hPa | 0 mm | - | 429 W/m² | - |
| 1787777220 | 22.22° C | 82% | 1019.5 hPa | 0 mm | - | 421 W/m² | - |
| 1787776920 | 22.22° C | 86% | 1019.7 hPa | 0 mm | - | 487 W/m² | - |
| 1787776625 | 22.22° C | 86% | 1019.7 hPa | 0 mm | - | 487 W/m² | - |
| 1787776320 | 21.67° C | 87% | 1019.6 hPa | 0 mm | - | 126 W/m² | - |
| 1787776021 | 21.11° C | 94% | 1019.9 hPa | 0 mm | - | 608 W/m² | - |
| 1787775720 | 21.11° C | 94% | 1019.9 hPa | 0 mm | - | 608 W/m² | - |
| 1787775421 | 21.11° C | 95% | 1019.6 hPa | 0 mm | - | 123 W/m² | - |
| 1787775120 | 20.56° C | 98% | 1019.9 hPa | 0 mm | - | 262 W/m² | - |
| 1787774820 | 20.56° C | 98% | 1019.9 hPa | 0 mm | - | 262 W/m² | - |
| 1787774520 | 20° C | 98% | 1020 hPa | 0 mm | - | 70 W/m² | - |
| 1787774221 | 20° C | 99% | 1019.9 hPa | 0 mm | - | 312 W/m² | - |
| 1787773918 | 20° C | 99% | 1019.9 hPa | 0 mm | - | 312 W/m² | - |
| 1787773620 | 19.44° C | 99% | 1020.1 hPa | 0 mm | - | 276 W/m² | - |
| 1787773320 | 19.44° C | 98% | 1019.7 hPa | 0 mm | - | 210 W/m² | - |
| 1787773020 | 19.44° C | 98% | 1019.7 hPa | 0 mm | - | 210 W/m² | - |
| 1787772720 | 19.44° C | 98% | 1019.7 hPa | 0 mm | - | 728 W/m² | - |
| 1787772420 | 19.44° C | 98% | 1019.8 hPa | 1.27 mm | - | 251 W/m² | - |
| 1787772120 | 20° C | 95% | 1019.8 hPa | 1.27 mm | - | 66 W/m² | - |
| 1787771820 | 20° C | 95% | 1019.6 hPa | 0 mm | - | 52 W/m² | - |
| 1787771518 | 20° C | 99% | 1019.5 hPa | 6.6 mm | - | 62 W/m² | - |
* Rain latest hour (hover to see other rain measurements)
** Current wind speed in m/s (hover to see current wind gust speed)